Farmington, MO

10:57 AM CST on December 12, 2019 (GMT -0600)
Farmington Regional

Weather History for KFAM - October, 2019

Change the Weather History Date:

Tuesday, October 1, 2019

  Actual Average Record
Temperature  
Mean Temperature 80 °F -  
Max Temperature 93 °F 71 °F 93 °F (2019)
Min Temperature 69 °F 47 °F 39 °F (2001)
Cooling Degree Days 15    
Growing Degree Days 30 (Base 50)    
Moisture  
Dew Point 67 °F    
Average Humidity 67    
Maximum Humidity 93    
Minimum Humidity 41    
Precipitation  
Precipitation 0.00 in - - ()
Sea Level Pressure  
Sea Level Pressure 30.03 in    
Wind  
Wind Speed 6 mph (SSW)    
Max Wind Speed 15 mph    
Max Gust Speed 20 mph    
Visibility 10 miles    
Events      
Averages and records for this station are not official NWS values.
T = Trace of Precipitation, MM = Missing Value Source: NWS Daily Summary

Daily Weather History Graph

Daily Weather History Graph

Search for Another Location

Airport or City:

Astronomy

Oct. 01, 2019 Rise Set
Actual Time 6:57 AM CDT 6:45 PM CDT
Civil Twilight 6:30 AM CDT 7:11 PM CDT
Nautical Twilight 6:00 AM CDT 7:41 PM CDT
Astronomical Twilight 5:29 AM CDT 8:12 PM CDT
Moon 10:10 AM CDT (10/1) 9:01 PM CDT (10/1)
Length of Visible Light 12h 40m
Length of Day
11h 47m
Waxing Crescent, 12% of the Moon is Illuminated
Oct 1
Waxing Crescent
Oct 5
First Quarter
Oct 13
Full
Oct 21
Last Quarter
Oct 27
New

Hourly Weather History & Observations

Time (CDT) Temp. Heat Index Dew Point Humidity Pressure Visibility Wind Dir Wind Speed Gust Speed Precip Events Conditions
12:56 AM 73.0 °F - 68.0 °F 84% 30.04 in 10.0 mi SSW 4.6 mph - N/A   Clear
1:56 AM 72.0 °F - 68.0 °F 87% 30.05 in 10.0 mi Calm Calm - N/A   Clear
2:56 AM 72.0 °F - 68.0 °F 87% 30.04 in 10.0 mi Calm Calm - N/A   Clear
3:56 AM 70.0 °F - 68.0 °F 93% 30.04 in 10.0 mi SSE 5.8 mph - N/A   Clear
4:56 AM 70.0 °F - 66.9 °F 90% 30.06 in 10.0 mi SSE 3.5 mph - N/A   Clear
5:56 AM 69.1 °F - 66.0 °F 90% 30.06 in 10.0 mi SSE 4.6 mph - N/A   Clear
6:56 AM 70.0 °F - 66.0 °F 87% 30.08 in 10.0 mi SSE 3.5 mph - N/A   Clear
7:56 AM 72.0 °F - 68.0 °F 87% 30.09 in 10.0 mi South 6.9 mph - N/A   Clear
8:56 AM 77.0 °F - 68.0 °F 74% 30.09 in 10.0 mi SSW 8.1 mph - N/A   Clear
9:56 AM 84.0 °F 87.8 °F 69.1 °F 61% 30.09 in 10.0 mi SSW 5.8 mph - N/A   Clear
10:56 AM 88.0 °F 90.7 °F 66.9 °F 49% 30.08 in 10.0 mi WSW 10.4 mph - N/A   Clear
11:56 AM 90.0 °F 92.8 °F 66.9 °F 46% 30.08 in 10.0 mi SW 11.5 mph 19.6 mph N/A   Clear
12:56 PM 91.0 °F 94.3 °F 66.9 °F 45% 30.05 in 10.0 mi SW 12.7 mph - N/A   Clear
1:56 PM 91.9 °F 94.5 °F 66.0 °F 42% 30.03 in 10.0 mi South 15.0 mph 19.6 mph N/A   Clear
2:56 PM 91.9 °F 94.1 °F 64.9 °F 41% 30.01 in 10.0 mi WSW 10.4 mph - N/A   Clear
3:56 PM 91.9 °F 94.5 °F 66.0 °F 42% 29.99 in 10.0 mi South 11.5 mph - N/A   Clear
4:56 PM 91.0 °F 92.6 °F 64.0 °F 41% 29.98 in 10.0 mi SSW 12.7 mph - N/A   Clear
5:56 PM 88.0 °F 89.3 °F 64.0 °F 45% 29.97 in 10.0 mi South 9.2 mph - N/A   Clear
6:56 PM 84.0 °F 86.3 °F 66.0 °F 55% 29.98 in 10.0 mi South 9.2 mph - N/A   Clear
7:56 PM 81.0 °F 83.3 °F 66.9 °F 62% 29.99 in 10.0 mi South 6.9 mph - N/A   Clear
8:56 PM 78.1 °F - 66.9 °F 68% 29.99 in 10.0 mi South 6.9 mph - N/A   Clear
9:56 PM 75.9 °F - 66.9 °F 74% 30.01 in 10.0 mi SSW 5.8 mph - N/A   Clear
10:56 PM 75.9 °F - 66.9 °F 74% 30.00 in 10.0 mi SSW 6.9 mph - N/A   Clear
11:56 PM 75.9 °F - 66.9 °F 74% 29.99 in 10.0 mi SW 8.1 mph - N/A   Clear